Find Starlink 33663

NORAD ID: 63652 Int'l Des: 2025-083 Owner: SPXS Country: US Constellation: starlink operational
LEOCIRCULAR

リアルタイム位置

3D地球を読み込み中...

Starlink 33663について

説明を読み込み中...

次回通過

Passes for default location (London). Set your location on the main map for personalized predictions.

高度履歴

Loading altitude history...

軌道要素

1 63652U 25083U 26125.47458023 .00017826 00000-0 65543-3 0 9999
2 63652 43.0004 44.3154 0001411 271.4752 88.5938 15.27596139 58755
Epoch: May 5, 2026 • Age: 14 hours

現在のステータス

高度 492.7 km
速度 7.62 km/s
衛星直下点 -36.59°S, 106.05°E
打ち上げ日 Apr 25, 2025
運用期間 1 years
タイプ internet

技術仕様

分類 Payload
質量 575.00 kg
乾燥質量 530.00 kg
総質量 575.00 kg
長さ 0.30 m
直径 4.10 m
スパン 29.00 m
形状 Box + pan
製造者 SPXS
バスタイプ Starlink V2MO
フェーズステータス In Orbit
所有者/国 SPXS/US

Most Searched